Total_Precipitation_Accumulation
0.03 0.06 0.14 0.16 0.15 0.15 0.18 0.18 0.17 0.14 0.12 0.13 0.15 0.16 0.17 0.18 0.17 0.17 0.17 0.18 0.19 0.20 0.21 0.21 0.20 0.20 0.19 0.19 0.19 0.19 0.18 0.18 0.19 0.20 0.23 0.27 0.28 0.25 0.22 0.20 0.15 0.22 0.31
0.05 0.08 0.13 0.13 0.14 0.15 0.15 0.14 0.12 0.10 0.10 0.11 0.10 0.10 0.12 0.13 0.14 0.15 0.16 0.17 0.19 0.19 0.20 0.20 0.20 0.18 0.16 0.17 0.20 0.19 0.17 0.14 0.13 0.14 0.14 0.15 0.24 0.27 0.22 0.24 0.24 0.35 0.39
0.04 0.07 0.11 0.12 0.13 0.14 0.13 0.11 0.09 0.08 0.07 0.08 0.08 0.07 0.08 0.09 0.09 0.10 0.12 0.13 0.14 0.14 0.15 0.17 0.19 0.18 0.13 0.14 0.18 0.18 0.17 0.15 0.12 0.10 0.09 0.10 0.19 0.26 0.26 0.26 0.27 0.39 0.39
0.02 0.04 0.07 0.11 0.13 0.14 0.12 0.11 0.08 0.07 0.06 0.06 0.06 0.06 0.06 0.07 0.07 0.08 0.09 0.10 0.11 0.13 0.15 0.15 0.16 0.17 0.14 0.13 0.14 0.15 0.15 0.14 0.10 0.07 0.03 0.05 0.23 0.35 0.35 0.30 0.26 0.35 0.37
0.01 0.02 0.06 0.11 0.13 0.14 0.13 0.11 0.08 0.07 0.07 0.07 0.06 0.05 0.05 0.06 0.06 0.06 0.06 0.05 0.06 0.08 0.10 0.12 0.15 0.17 0.16 0.14 0.13 0.15 0.16 0.15 0.10 0.04 0.01 0.07 0.25 0.38 0.34 0.31 0.27 0.32 0.35
0.02 0.02 0.06 0.10 0.13 0.14 0.14 0.12 0.09 0.07 0.07 0.06 0.05 0.05 0.06 0.06 0.06 0.05 0.05 0.04 0.03 0.05 0.07 0.11 0.16 0.20 0.16 0.14 0.17 0.19 0.25 0.22 0.11 0.03 0.02 0.07 0.16 0.29 0.34 0.37 0.36 0.32 0.31
0.03 0.04 0.06 0.08 0.12 0.13 0.13 0.11 0.08 0.07 0.07 0.06 0.05 0.05 0.05 0.05 0.05 0.05 0.06 0.05 0.04 0.04 0.05 0.07 0.12 0.20 0.19 0.18 0.23 0.26 0.32 0.25 0.12 0.11 0.06 0.04 0.11 0.26 0.42 0.47 0.44 0.36 0.32
0.00 0.01 0.02 0.06 0.09 0.10 0.12 0.11 0.08 0.07 0.07 0.06 0.05 0.05 0.04 0.04 0.05 0.07 0.09 0.08 0.06 0.05 0.06 0.06 0.07 0.13 0.17 0.20 0.24 0.28 0.29 0.17 0.12 0.22 0.18 0.14 0.19 0.36 0.47 0.64 0.60 0.46 0.39
0.00 0.00 0.01 0.04 0.06 0.08 0.09 0.09 0.08 0.07 0.06 0.06 0.05 0.04 0.04 0.04 0.04 0.07 0.08 0.07 0.06 0.06 0.07 0.06 0.04 0.06 0.11 0.16 0.18 0.22 0.21 0.13 0.12 0.31 0.31 0.39 0.30 0.38 0.44 0.60 0.67 0.57 0.46
0.00 0.00 0.01 0.02 0.03 0.05 0.06 0.07 0.07 0.07 0.06 0.07 0.06 0.04 0.04 0.04 0.06 0.08 0.06 0.06 0.06 0.07 0.07 0.06 0.06 0.04 0.04 0.05 0.08 0.09 0.09 0.05 0.06 0.22 0.48 0.46 0.34 0.49 0.56 0.59 0.65 0.62 0.58
0.00 0.00 0.01 0.01 0.02 0.03 0.04 0.05 0.06 0.06 0.06 0.07 0.08 0.07 0.05 0.05 0.04 0.04 0.03 0.05 0.05 0.05 0.05 0.06 0.06 0.06 0.05 0.02 0.02 0.03 0.03 0.00 0.04 0.16 0.28 0.30 0.38 0.52 0.69 0.73 0.73 0.68 0.63
0.00 0.01 0.01 0.01 0.01 0.02 0.02 0.04 0.04 0.04 0.04 0.03 0.04 0.04 0.05 0.05 0.05 0.06 0.06 0.08 0.07 0.05 0.06 0.08 0.08 0.07 0.05 0.03 0.06 0.08 0.03 0.01 0.01 0.03 0.08 0.13 0.26 0.42 0.58 0.73 0.85 0.83 0.73
0.00 0.00 0.00 0.01 0.01 0.01 0.02 0.02 0.03 0.03 0.03 0.03 0.02 0.01 0.02 0.03 0.03 0.04 0.05 0.06 0.07 0.08 0.10 0.11 0.11 0.11 0.11 0.12 0.14 0.14 0.10 0.06 0.04 0.03 0.03 0.07 0.13 0.22 0.40 0.60 0.81 0.93 0.91
0.00 0.00 0.00 0.01 0.01 0.01 0.01 0.01 0.02 0.02 0.02 0.02 0.02 0.01 0.01 0.02 0.02 0.01 0.02 0.03 0.04 0.07 0.09 0.14 0.15 0.16 0.13 0.13 0.13 0.13 0.13 0.13 0.08 0.07 0.05 0.08 0.10 0.10 0.18 0.35 0.58 0.87 1.02
0.00 0.00 0.00 0.00 0.01 0.01 0.01 0.01 0.01 0.01 0.02 0.02 0.02 0.02 0.02 0.02 0.02 0.01 0.01 0.01 0.01 0.02 0.02 0.03 0.05 0.08 0.09 0.09 0.11 0.11 0.12 0.11 0.09 0.10 0.09 0.10 0.10 0.09 0.10 0.18 0.35 0.67 0.98
0.00 0.00 0.00 0.00 0.01 0.01 0.01 0.01 0.01 0.01 0.01 0.02 0.02 0.02 0.02 0.02 0.02 0.02 0.01 0.01 0.01 0.01 0.01 0.01 0.01 0.02 0.03 0.03 0.04 0.05 0.07 0.08 0.08 0.11 0.12 0.14 0.13 0.11 0.10 0.12 0.20 0.39 0.73
0.00 0.00 0.00 0.00 0.00 0.01 0.01 0.01 0.01 0.01 0.02 0.02 0.02 0.02 0.02 0.02 0.02 0.02 0.02 0.02 0.01 0.01 0.01 0.01 0.01 0.01 0.01 0.01 0.01 0.01 0.02 0.03 0.05 0.08 0.10 0.13 0.17 0.15 0.13 0.12 0.13 0.21 0.40
0.00 0.00 0.00 0.00 0.00 0.01 0.01 0.01 0.02 0.02 0.02 0.02 0.02 0.02 0.02 0.02 0.02 0.02 0.02 0.02 0.02 0.02 0.01 0.01 0.01 0.01 0.01 0.01 0.01 0.01 0.00 0.01 0.01 0.03 0.05 0.08 0.14 0.17 0.15 0.15 0.14 0.15 0.24
0.00 0.00 0.00 0.00 0.00 0.00 0.01 0.01 0.02 0.02 0.02 0.02 0.02 0.02 0.02 0.02 0.02 0.02 0.03 0.03 0.02 0.02 0.01 0.01 0.01 0.01 0.01 0.01 0.01 0.01 0.00 0.00 0.00 0.00 0.01 0.03 0.06 0.13 0.17 0.17 0.18 0.17 0.17
0.00 0.00 0.00 0.00 0.00 0.00 0.01 0.02 0.02 0.02 0.02 0.02 0.02 0.01 0.01 0.01 0.01 0.02 0.03 0.02 0.02 0.02 0.02 0.01 0.02 0.01 0.02 0.02 0.01 0.01 0.00 0.00 0.00 0.00 0.00 0.01 0.02 0.05 0.11 0.15 0.18 0.18 0.16
0.00 0.00 0.00 0.00 0.00 0.01 0.01 0.02 0.02 0.02 0.02 0.02 0.02 0.01 0.01 0.01 0.01 0.02 0.02 0.02 0.02 0.02 0.02 0.02 0.02 0.02 0.02 0.02 0.03 0.02 0.01 0.00 0.00 0.00 0.00 0.00 0.01 0.01 0.04 0.08 0.15 0.20 0.19
0.00 0.00 0.00 0.00 0.00 0.00 0.00 0.00 0.01 0.01 0.01 0.01 0.01 0.01 0.01 0.01 0.01 0.01 0.02 0.02 0.02 0.03 0.03 0.03 0.03 0.03 0.03 0.02 0.06 0.11 0.05 0.01 0.00 0.00 0.00 0.00 0.00 0.01 0.02 0.04 0.08 0.15 0.20
0.00 0.00 0.00 0.00 0.00 0.00 0.00 0.00 0.01 0.01 0.01 0.01 0.02 0.01 0.01 0.01 0.01 0.01 0.01 0.01 0.01 0.02 0.02 0.02 0.02 0.03 0.05 0.02 0.05 0.19 0.29 0.17 0.05 0.01 0.00 0.01 0.01 0.01 0.01 0.02 0.05 0.08 0.14
0.00 0.00 0.00 0.00 0.00 0.00 0.00 0.00 0.00 0.01 0.01 0.00 0.01 0.01 0.01 0.01 0.01 0.01 0.01 0.01 0.01 0.01 0.02 0.02 0.02 0.03 0.07 0.08 0.05 0.08 0.19 0.26 0.29 0.14 0.02 0.02 0.03 0.03 0.02 0.02 0.03 0.05 0.08
0.00 0.00 0.00 0.00 0.00 0.00 0.00 0.00 0.00 0.00 0.00 0.00 0.00 0.01 0.01 0.01 0.01 0.01 0.01 0.01 0.01 0.01 0.02 0.02 0.03 0.04 0.07 0.12 0.13 0.11 0.10 0.10 0.16 0.25 0.12 0.03 0.04 0.04 0.04 0.03 0.03 0.04 0.05
0.00 0.00 0.00 0.00 0.00 0.00 0.00 0.00 0.00 0.00 0.00 0.00 0.00 0.01 0.01 0.02 0.02 0.02 0.01 0.02 0.01 0.02 0.02 0.03 0.04 0.05 0.07 0.09 0.12 0.14 0.17 0.20 0.16 0.22 0.21 0.07 0.03 0.03 0.04 0.04 0.05 0.07 0.09